Wind_Speed
22 23 25 26 26 27 28 29 30 32 33 34 29 20 15 13 12 15 18 17 19 14 4 5 6 4 8 11 9 9 10 11 12 11 11 11 8 8 10 10 11 10 9 9 9 7 4 3 2 1 5 7 8 9 12 11 6 4 2 2 1 1 5 8 8 7 7 8 12 15 18 18 17 15 14 14 14 13 10 8 6 6 9 9 7 8 4
22 22 24 25 26 26 27 28 29 29 30 31 26 17 15 16 16 15 14 14 15 10 4 6 6 6 11 12 9 9 9 10 12 11 10 9 8 9 8 8 9 9 9 9 9 7 4 1 1 1 3 5 8 10 11 11 7 4 4 3 1 4 8 10 9 7 7 8 9 13 16 15 12 13 17 17 18 18 14 10 8 7 9 10 8 7 3
22 22 23 24 25 26 26 27 27 27 28 29 23 15 15 16 11 11 14 13 10 8 6 7 6 8 11 11 10 10 9 9 11 11 10 10 11 10 8 10 12 10 9 11 10 7 7 3 1 0 3 5 6 9 10 10 9 9 10 8 4 4 6 10 11 11 11 11 9 8 11 13 11 12 18 20 21 21 15 10 10 9 9 10 9 6 3
22 22 23 23 25 26 26 26 26 26 26 27 20 13 14 13 7 10 15 12 8 8 7 8 8 8 9 9 9 10 9 8 10 11 8 9 14 12 8 12 13 10 9 9 11 7 6 4 1 1 1 3 4 7 8 8 10 12 13 10 5 4 4 5 5 4 4 2 2 3 2 11 16 16 16 16 19 21 16 11 10 9 8 10 10 8 4
22 22 22 22 24 25 25 25 25 24 25 25 19 13 13 11 6 9 11 8 8 8 9 11 10 9 9 7 7 10 10 8 8 8 6 9 13 10 6 12 12 11 13 9 7 5 5 4 1 1 2 3 3 4 4 6 10 12 11 10 5 4 5 4 2 2 3 4 5 6 4 6 14 16 16 15 16 18 16 13 11 8 8 9 10 11 11
22 22 21 21 23 24 24 24 23 24 23 21 17 13 12 8 8 11 9 6 7 8 10 13 12 11 10 6 6 10 10 9 8 6 5 8 10 7 5 12 14 12 14 11 6 4 5 4 1 2 4 5 2 1 3 5 9 9 7 9 6 3 4 3 2 2 1 2 3 3 2 1 3 8 12 13 15 16 16 15 13 11 9 7 6 10 13
22 22 21 20 21 22 23 23 22 22 22 19 15 12 11 9 9 11 10 9 11 11 12 14 12 10 8 5 5 9 10 10 8 6 6 6 7 8 7 11 14 13 14 12 6 3 3 1 3 5 6 5 4 1 2 4 8 8 6 6 6 4 0 2 2 4 2 2 2 1 1 1 2 5 7 8 11 13 14 15 15 13 11 9 8 8 9
23 23 22 21 21 21 22 23 22 21 20 17 12 9 9 10 9 10 11 12 13 14 13 12 10 8 5 4 5 8 9 10 9 8 7 5 6 9 10 11 12 11 11 11 7 7 9 7 6 8 8 4 3 2 1 4 7 8 5 5 5 4 1 2 4 4 4 4 3 2 3 4 5 8 8 9 10 11 11 12 12 12 12 13 14 13 10
24 24 23 23 22 21 21 22 21 20 19 15 11 8 8 9 10 10 10 9 11 13 12 10 8 5 3 4 6 8 9 10 11 8 3 3 3 8 10 11 10 8 7 8 7 9 11 10 10 11 10 7 5 4 4 6 7 6 5 5 5 4 1 1 2 5 5 5 5 5 4 6 10 12 12 12 12 12 12 11 11 12 13 14 15 14 11
25 24 24 23 22 21 20 20 20 20 18 14 11 10 8 9 10 10 8 7 9 11 10 9 8 5 5 7 8 9 9 8 10 7 2 3 3 7 8 9 8 7 6 5 8 12 14 14 14 14 13 12 11 10 9 9 7 5 5 5 3 4 3 1 2 5 4 5 4 4 3 7 11 12 14 15 14 12 12 12 13 14 13 12 13 11 8
27 26 24 23 22 21 19 19 19 19 17 13 12 12 9 8 9 9 7 6 9 10 8 7 7 7 10 12 11 10 9 8 8 7 4 6 9 8 8 8 7 6 5 7 11 15 17 17 17 16 15 15 14 13 12 11 9 7 5 5 3 3 4 3 2 4 4 4 2 3 6 9 6 2 7 14 15 15 16 15 14 14 13 11 11 9 8
28 27 26 24 23 21 19 19 20 20 18 16 15 14 10 9 9 8 6 5 8 10 8 7 9 12 14 15 12 9 9 10 10 9 8 9 11 10 9 8 7 6 8 12 15 17 17 17 15 14 14 15 14 14 13 12 12 11 9 7 5 3 4 4 3 4 5 2 2 6 8 5 2 6 3 5 8 11 12 11 10 10 11 12 12 11 10
29 28 28 26 24 22 19 19 19 21 20 18 16 14 12 11 9 8 7 6 8 9 8 10 14 15 13 12 11 11 12 12 12 11 9 9 10 11 9 7 8 9 12 15 16 15 12 10 9 9 10 11 11 12 14 14 14 13 11 9 7 5 4 4 4 5 5 4 6 8 3 2 3 3 4 5 6 6 7 9 11 10 7 7 8 9 9
30 30 29 28 26 23 20 17 18 20 21 20 19 16 14 12 10 9 8 6 7 11 12 12 12 12 11 12 13 13 13 13 11 10 9 9 9 8 7 8 10 11 12 13 13 11 7 5 5 5 6 7 7 8 11 14 14 14 13 11 9 8 5 4 5 6 6 6 7 6 3 3 5 5 4 4 5 5 3 7 9 7 4 2 4 6 7
32 32 31 29 27 25 22 18 16 17 20 21 21 18 15 14 12 11 10 9 8 12 12 9 8 11 12 14 14 12 10 9 9 9 9 9 8 5 6 8 10 10 10 10 8 6 5 5 5 4 4 5 5 4 5 8 10 13 14 12 10 9 7 5 5 5 6 6 7 7 7 7 6 6 7 5 4 4 2 3 4 7 7 2 3 4 6
33 33 32 30 28 26 24 21 17 15 18 21 22 21 17 16 14 12 13 12 8 8 8 8 11 14 14 14 14 12 9 7 7 7 7 6 6 6 6 6 7 8 9 8 6 5 5 5 4 4 3 3 2 2 3 5 6 9 11 12 12 11 8 6 6 6 7 8 8 7 7 3 2 6 8 6 4 4 3 4 5 6 7 2 3 4 6
34 34 33 32 29 27 25 23 20 17 17 20 23 22 19 18 16 13 14 13 11 13 16 15 15 15 12 10 11 10 9 8 8 7 5 6 9 10 7 5 6 6 7 6 5 4 5 5 4 5 3 0 2 5 4 5 5 7 9 11 12 11 7 6 7 8 7 8 7 6 5 1 3 4 5 6 4 2 4 6 4 5 5 1 2 4 6
35 35 33 32 31 29 27 24 21 19 18 19 23 24 21 20 18 15 15 16 14 14 16 14 13 13 11 9 11 12 11 10 8 6 7 8 8 7 8 9 6 3 3 5 4 4 5 5 3 4 2 1 2 5 3 3 5 5 6 7 9 9 8 7 8 8 8 9 8 6 5 1 2 3 3 3 1 3 4 3 2 4 3 2 3 4 5
36 35 33 32 31 30 28 25 21 19 18 18 22 25 24 21 20 18 18 18 16 15 14 13 12 15 14 13 14 14 12 11 9 6 6 6 5 8 11 10 5 2 3 4 4 4 5 4 1 3 4 1 2 3 3 2 3 2 3 5 7 7 8 8 8 8 8 8 7 7 6 1 2 4 5 3 4 3 1 3 2 1 3 3 4 5 4
35 35 34 33 32 30 27 24 21 19 19 18 20 24 26 23 21 21 20 19 20 21 21 19 18 18 17 16 16 16 14 13 11 7 6 6 7 11 10 4 1 2 3 4 4 3 3 3 1 1 4 3 1 2 3 3 4 3 4 5 4 5 6 8 9 8 7 8 8 8 6 4 8 6 4 3 3 4 8 9 7 4 6 7 6 5 5
35 35 34 33 32 29 26 23 21 19 19 18 19 23 27 25 23 23 23 21 22 20 16 12 13 15 16 16 18 19 18 17 16 12 12 12 10 8 5 2 3 4 2 2 3 2 1 3 2 2 4 3 2 3 4 4 5 5 4 5 5 5 6 6 6 5 5 9 8 3 2 4 7 6 4 4 8 12 15 14 10 8 8 8 7 8 7
36 35 34 33 30 27 24 23 22 21 19 18 19 22 26 26 23 22 21 21 23 23 19 16 17 19 20 20 21 21 21 21 20 18 17 17 14 10 9 9 9 7 4 4 4 2 2 3 3 3 5 4 3 5 5 5 5 4 4 5 5 3 1 2 3 3 4 8 6 7 13 14 10 8 9 12 14 15 16 17 14 12 10 8 9 10 9
36 35 34 31 28 26 26 25 24 22 19 19 21 23 25 26 23 21 21 22 25 26 25 24 23 22 20 19 18 18 19 19 19 19 19 17 14 12 13 13 10 8 6 6 6 5 4 4 4 4 5 4 5 6 6 6 6 4 4 6 5 3 0 2 3 5 7 10 12 12 16 19 16 13 13 15 16 17 17 18 16 14 11 10 10 11 10
35 34 32 31 29 28 28 27 24 23 21 21 22 23 24 25 23 21 20 20 21 20 17 17 18 15 12 12 11 10 12 13 14 15 17 18 15 11 11 11 10 7 6 6 6 6 5 4 3 4 4 5 5 6 6 6 5 4 5 7 7 6 4 4 5 7 7 7 8 10 14 17 18 17 17 18 18 17 16 16 16 15 13 11 10 10 8
34 33 32 31 30 29 30 29 25 23 23 22 21 20 21 23 22 20 19 17 16 12 8 8 12 13 12 13 9 7 8 8 10 11 13 18 20 16 11 9 8 8 7 6 5 6 7 5 4 5 6 5 4 5 6 6 4 4 5 7 6 4 2 4 8 9 9 9 10 15 20 23 22 21 21 19 19 18 17 16 17 17 14 12 11 9 7
33 32 31 31 30 30 32 31 27 24 24 22 21 20 20 20 20 19 19 19 17 13 9 8 9 10 13 15 12 10 10 11 11 13 14 17 20 20 17 13 11 10 9 8 7 9 9 6 5 6 6 4 4 5 6 7 7 7 7 8 9 7 5 6 8 9 10 11 13 16 19 21 21 21 19 16 15 16 17 17 18 19 17 14 12 9 6
32 31 30 30 31 33 33 31 28 25 23 22 20 19 18 17 18 17 18 19 15 9 6 6 5 6 12 17 15 13 14 14 13 14 16 17 18 20 20 19 17 15 13 11 9 9 8 7 6 7 8 8 8 8 9 9 9 8 8 10 11 10 8 7 8 8 9 9 10 11 10 11 14 16 17 18 18 18 19 19 19 21 20 15 12 11 6
31 30 30 31 33 35 33 30 27 23 20 19 17 15 12 12 15 16 17 18 17 12 8 8 8 10 13 14 11 8 8 9 10 12 14 16 17 19 20 20 19 17 15 13 10 8 7 7 8 9 9 8 8 8 9 10 9 9 9 11 12 12 11 10 9 9 11 12 13 13 12 13 18 20 21 23 22 21 22 21 19 22 24 19 15 13 8
30 30 32 33 35 34 31 26 22 18 16 15 12 9 7 8 10 11 12 15 18 18 16 13 12 11 10 10 9 9 9 10 11 12 13 14 15 17 18 19 18 17 15 14 11 9 9 10 12 11 8 5 4 5 7 8 9 9 11 13 16 16 17 17 15 14 17 20 21 18 17 20 25 25 24 24 24 22 23 23 21 22 25 23 19 15 9
30 32 34 34 33 29 24 19 17 16 15 13 9 5 4 4 4 2 4 8 12 16 15 9 7 7 8 11 13 11 9 10 11 12 14 14 15 15 16 17 18 17 16 15 13 11 10 11 13 14 13 10 7 4 5 8 9 10 14 17 18 18 19 20 20 20 20 21 20 19 20 24 27 27 27 28 26 24 24 25 24 24 25 25 20 14 8
32 33 33 31 28 22 18 16 16 17 15 11 7 3 2 2 3 2 1 0 6 14 14 9 6 8 10 12 12 8 6 7 8 10 12 14 15 15 16 17 17 17 17 17 15 14 12 10 10 12 13 13 10 5 6 9 9 11 18 20 17 17 20 20 21 22 23 22 22 22 25 27 27 25 26 27 25 23 23 25 25 24 25 24 18 11 7
33 32 30 26 21 16 15 17 18 16 13 10 8 5 4 5 6 6 3 4 5 12 11 6 5 5 5 7 9 7 7 8 9 10 12 13 14 14 16 17 17 16 17 16 12 11 12 14 14 14 14 13 10 5 7 10 11 16 23 22 16 18 22 23 23 24 24 23 22 22 25 28 27 25 26 25 23 22 24 24 24 24 25 22 15 10 6
32 29 25 21 17 14 15 18 19 17 13 11 9 8 7 7 8 7 2 5 7 10 8 2 2 3 3 6 9 8 6 6 7 9 11 12 13 13 14 16 16 15 15 13 9 7 10 13 14 13 14 13 9 5 7 12 17 23 28 26 22 22 25 27 28 26 25 25 24 24 26 29 27 25 25 25 24 23 24 23 22 22 23 21 16 11 8
31 26 21 17 15 13 16 20 21 18 15 12 9 8 9 10 8 4 2 7 8 6 4 2 2 3 4 5 6 4 4 4 5 6 7 9 11 12 11 12 13 11 12 14 12 10 11 11 11 10 11 11 10 7 8 14 22 27 28 28 28 28 28 29 30 30 29 30 32 33 34 33 30 28 28 28 27 26 25 24 21 19 21 22 18 12 9
28 22 18 16 15 14 18 22 20 16 13 11 7 6 7 9 7 2 4 6 5 4 3 2 2 3 3 4 2 2 4 6 5 5 4 5 9 10 8 8 8 8 8 11 11 10 9 10 10 8 7 7 8 8 8 13 20 23 24 26 28 28 27 28 30 33 35 36 37 36 34 31 30 30 29 28 27 26 25 23 21 19 21 23 18 12 8
24 19 16 16 16 16 18 20 17 12 10 9 5 4 6 7 6 3 3 3 2 2 3 3 3 2 3 3 3 3 5 6 5 4 3 2 5 8 7 5 5 6 6 7 7 8 9 10 8 5 5 6 7 8 11 16 20 23 26 30 32 31 31 33 34 35 35 34 33 32 30 28 29 29 28 27 26 25 24 23 21 21 23 22 16 11 9
21 17 15 16 17 15 14 17 18 14 11 7 4 5 8 8 6 3 2 3 3 3 2 2 3 3 4 3 3 4 4 4 4 3 2 1 1 3 5 4 3 2 4 5 4 5 8 9 5 4 6 7 10 17 26 31 31 31 33 34 34 36 40 41 39 38 35 31 29 31 30 28 29 28 28 27 27 25 24 23 21 22 24 22 16 11 9
18 15 15 17 16 12 11 16 19 16 12 7 5 5 5 5 3 3 3 3 3 3 3 3 3 3 3 3 3 4 3 3 4 3 1 3 3 1 3 2 1 1 1 2 3 7 7 5 3 4 6 8 16 28 36 35 30 29 31 32 32 37 40 35 30 31 31 25 24 26 27 28 29 29 28 28 27 25 24 23 21 21 23 22 17 13 10
18 15 16 17 15 11 12 15 17 16 12 7 5 3 2 1 1 1 3 3 2 3 4 3 4 4 5 4 3 4 3 2 3 3 2 4 5 2 0 1 3 3 2 2 5 8 6 2 2 4 4 6 17 32 39 36 27 19 19 21 24 29 31 26 22 23 24 22 21 22 24 26 29 30 30 28 26 24 22 21 21 21 21 19 16 13 11
19 16 15 15 13 12 12 13 15 17 13 7 4 4 4 3 3 2 2 1 0 2 3 3 4 4 5 4 2 2 1 1 2 3 2 4 5 3 2 2 4 3 2 1 4 7 4 2 3 5 4 8 19 32 39 37 32 29 28 22 17 17 19 19 16 13 14 16 16 15 17 21 25 28 30 28 26 24 22 19 20 21 19 16 14 13 12
21 16 14 12 11 12 14 16 15 14 11 7 4 5 5 4 4 4 5 5 4 3 4 5 2 2 3 4 4 2 1 0 1 1 1 3 4 3 2 2 4 3 1 2 4 5 3 3 4 4 7 17 28 37 42 44 41 40 40 31 18 11 10 9 6 3 5 8 8 9 13 17 19 22 25 24 23 23 22 19 17 18 17 15 14 14 14
19 15 11 11 11 12 15 17 15 10 7 7 6 4 3 5 6 5 6 6 4 6 11 11 8 5 3 1 3 2 1 1 2 2 0 2 3 3 2 2 3 2 2 4 5 4 2 4 5 5 12 25 33 37 42 47 47 44 43 38 26 17 13 10 5 1 1 2 3 5 9 12 12 14 16 18 18 18 18 17 15 15 17 19 18 16 16
17 15 11 11 12 11 9 12 13 9 4 4 6 4 4 6 6 4 5 6 7 10 15 16 14 11 8 4 1 1 1 1 1 0 0 1 1 1 2 3 3 3 3 5 5 4 5 6 6 8 17 27 34 35 38 44 46 45 46 45 41 33 27 23 17 12 8 7 7 7 8 10 10 9 10 13 15 15 15 16 15 14 17 21 22 22 23
17 17 11 8 10 9 6 7 10 9 4 4 5 5 6 8 7 5 5 7 9 13 17 19 16 12 9 6 4 3 2 2 2 0 0 0 1 2 3 4 3 3 4 3 5 5 5 5 8 14 23 30 33 36 38 41 44 46 48 50 51 48 42 38 36 33 28 22 19 16 13 14 15 12 10 11 13 14 14 16 17 17 19 24 27 28 29
14 14 10 6 8 10 7 5 6 7 5 4 4 5 5 7 7 6 7 8 10 12 18 22 19 14 11 9 6 6 6 4 2 2 3 2 4 5 4 2 2 3 4 4 5 6 7 7 11 19 28 33 34 36 39 40 40 41 46 50 53 52 49 48 49 49 45 39 36 34 32 33 34 31 27 25 21 17 20 27 31 30 30 33 33 31 30
13 11 8 5 6 9 8 5 4 5 5 6 7 8 8 8 8 8 9 11 10 11 16 20 18 14 12 10 7 7 9 7 4 4 5 4 5 6 5 3 3 5 6 6 7 8 8 10 13 20 29 35 34 34 37 38 37 37 40 44 48 50 51 52 53 52 50 47 45 44 42 44 46 45 44 43 39 35 35 40 41 39 39 39 37 33 31
11 10 7 4 4 7 8 7 6 7 9 11 12 13 12 11 10 10 11 11 11 10 11 14 14 13 12 11 8 9 10 9 6 6 7 4 4 5 5 5 5 5 6 7 8 6 6 11 18 23 29 33 33 32 33 35 37 37 36 37 39 43 45 48 50 51 52 51 49 47 45 46 49 52 52 49 46 43 43 45 45 43 43 43 40 37 36
10 7 6 4 4 6 8 9 10 12 14 15 15 16 16 14 13 14 13 12 11 10 10 10 10 10 11 11 9 8 9 9 8 7 7 5 3 3 5 6 5 5 4 5 6 5 7 14 22 25 24 27 31 33 31 31 34 36 35 35 36 37 39 41 43 45 46 46 46 46 47 49 51 51 49 46 43 41 41 41 41 40 40 40 39 39 39
15 9 7 6 6 8 11 12 12 13 16 18 18 19 19 18 16 16 16 15 13 10 9 9 8 6 5 6 6 6 7 8 6 6 7 7 5 4 5 6 6 6 4 3 4 6 10 16 21 22 22 25 30 33 32 31 32 33 34 34 34 34 35 37 37 37 38 38 38 40 42 44 45 44 43 42 40 39 37 37 37 38 38 37 37 38 38
17 12 11 10 9 9 12 13 11 10 14 18 19 19 19 18 18 18 19 17 14 10 8 9 9 7 6 5 4 5 6 6 5 5 7 8 7 6 6 7 6 4 4 4 5 8 11 15 18 19 22 25 29 32 33 33 33 33 33 33 33 33 33 33 33 33 33 33 33 34 36 36 36 37 37 36 35 34 33 34 35 35 35 34 34 35 36
11 11 12 12 11 10 11 12 11 11 12 15 17 18 18 18 18 19 19 17 14 11 10 9 8 6 5 6 5 5 5 5 5 6 7 7 5 5 6 6 5 4 5 7 8 9 10 14 17 18 20 24 29 31 32 32 33 33 32 31 31 31 32 32 32 32 31 30 29 29 30 31 32 33 33 31 31 32 33 34 34 34 35 35 34 34 34
7 8 10 12 14 13 12 12 13 14 14 15 16 17 18 17 18 18 18 16 15 13 11 11 9 6 5 6 6 5 5 5 6 7 7 5 5 5 5 4 5 7 8 9 11 12 13 14 16 16 17 21 25 28 29 30 32 33 33 31 30 29 29 28 27 26 26 26 26 26 27 29 30 30 30 30 30 31 32 32 32 31 32 32 32 31 31
Wind_Direction
358 356 354 354 354 354 355 355 355 357 358 359 359 354 348 340 321 323 338 347 345 334 332 15 352 356 360 338 328 338 333 327 328 329 331 327 319 303 282 270 271 270 269 270 262 262 281 300 307 46 77 54 31 13 360 351 331 294 251 151 87 258 223 218 216 200 202 200 183 195 207 201 200 207 204 206 209 207 213 220 214 212 216 215 224 242 230
358 356 353 353 354 354 355 355 356 358 359 358 357 353 346 333 313 318 341 349 347 350 9 2 348 352 347 337 343 353 349 349 344 338 343 344 333 315 299 293 294 287 276 266 258 256 255 226 14 354 79 63 30 14 7 1 5 19 4 351 308 220 209 207 213 197 185 188 185 195 204 206 211 209 204 209 211 208 213 222 231 234 222 213 218 232 202
359 356 353 352 352 353 353 355 357 358 359 359 360 353 340 334 322 331 346 349 358 15 19 357 345 348 343 339 348 354 358 8 358 343 344 351 339 317 311 322 313 300 281 255 243 255 261 252 11 22 99 74 37 17 10 9 19 21 1 340 306 253 214 207 212 207 198 193 189 196 199 199 209 211 205 208 210 208 209 217 222 225 224 222 224 227 133
359 357 354 351 350 350 351 354 356 358 358 360 5 0 343 339 339 346 344 342 357 13 9 354 348 347 341 339 347 348 350 1 358 350 352 359 345 322 324 346 334 328 327 269 228 235 265 265 237 183 111 72 51 19 8 19 17 359 351 345 306 251 218 223 236 234 225 190 94 2 262 200 199 203 202 203 209 209 208 215 219 216 223 229 227 232 204
357 356 354 350 347 347 350 352 355 357 358 1 6 1 347 343 342 348 343 334 343 352 351 351 350 341 336 337 337 337 342 351 356 360 2 359 349 323 331 10 1 349 348 318 248 231 235 229 210 103 31 31 55 34 18 25 9 347 349 359 330 237 197 218 270 353 2 14 25 9 335 207 196 197 196 197 204 209 213 219 219 211 223 228 214 219 228
354 353 350 348 345 345 347 350 353 355 357 3 8 359 351 348 337 341 342 324 328 336 336 336 332 328 331 332 323 329 340 348 355 1 342 344 359 347 343 8 2 347 344 332 295 250 223 206 136 50 19 3 351 73 88 46 12 351 358 15 353 260 199 186 243 283 325 341 357 7 348 242 191 194 193 192 197 208 219 226 226 223 234 243 215 212 228
353 353 350 346 343 341 343 346 350 353 355 2 9 360 351 344 328 332 337 322 314 315 318 319 318 324 330 324 331 335 338 346 350 341 318 325 5 8 354 356 352 343 339 334 335 360 330 321 59 22 356 351 337 310 129 73 21 360 359 19 1 305 238 83 299 275 233 233 294 331 284 233 220 216 206 199 203 212 220 226 231 237 247 258 260 248 242
352 354 352 347 343 339 340 342 346 350 352 358 4 356 344 339 329 325 324 317 312 312 315 314 312 319 321 321 349 341 331 343 347 334 331 340 1 3 356 350 343 337 335 330 335 7 355 341 360 353 336 339 354 334 33 33 8 355 355 10 352 326 48 43 317 274 216 206 218 232 253 257 250 238 225 217 214 214 217 222 226 234 243 251 258 262 256
348 349 349 348 345 341 337 336 338 344 348 349 349 344 334 327 324 321 315 313 314 314 317 317 310 313 324 331 344 335 328 342 342 338 22 79 353 347 344 337 333 324 323 320 316 337 338 320 317 323 313 309 323 319 325 342 342 342 352 351 333 319 326 33 283 247 206 180 191 218 250 269 260 245 230 223 219 216 217 218 218 222 231 240 247 252 252
343 343 344 344 344 342 337 331 329 334 340 339 331 329 328 322 322 321 309 300 308 312 315 316 311 315 330 325 321 318 320 333 334 334 112 174 283 325 327 321 321 311 307 317 318 318 315 305 302 301 294 289 289 285 288 300 304 307 322 323 311 311 310 285 238 238 201 158 180 225 249 256 252 242 227 220 217 219 219 217 220 220 222 231 240 246 253
340 339 339 339 339 340 337 331 325 323 326 323 316 316 320 318 316 315 302 290 303 312 313 313 314 317 318 315 313 310 311 319 328 328 309 294 310 322 317 304 296 294 310 322 316 307 300 294 286 277 273 273 273 271 272 274 270 265 277 289 286 285 281 274 267 247 212 154 148 237 233 232 235 226 218 215 212 217 221 220 219 216 217 233 247 255 260
337 336 335 334 334 335 335 331 323 317 313 310 307 307 308 309 308 301 288 288 305 310 307 301 304 307 307 307 307 305 308 315 319 314 302 305 314 315 311 302 285 290 322 321 312 305 298 291 276 258 251 254 258 259 259 259 254 245 241 250 261 260 247 250 257 247 242 228 207 224 225 214 120 76 104 195 206 215 222 227 230 227 229 238 247 254 259
334 333 332 331 329 329 331 331 326 315 306 300 298 298 297 299 296 280 269 280 294 300 302 299 297 297 299 305 307 305 306 309 307 302 295 296 305 309 310 304 293 302 317 314 308 305 299 288 274 253 237 236 244 247 245 244 242 236 228 228 240 249 245 247 242 236 248 248 218 213 203 90 112 120 121 147 171 185 209 228 231 231 235 237 245 259 267
331 330 329 328 326 323 321 325 328 319 306 295 290 288 287 284 278 268 263 269 285 292 294 295 296 298 302 307 308 306 307 307 303 301 300 298 300 306 304 297 296 303 309 307 304 300 292 287 281 254 221 213 226 232 229 229 231 229 222 216 223 235 242 246 237 229 236 240 231 234 269 277 225 191 149 146 155 149 205 241 216 178 142 169 237 258 273
329 328 327 325 323 320 315 313 319 321 311 297 284 277 277 274 268 263 258 257 278 292 287 282 295 307 309 308 308 306 306 310 309 306 303 299 295 298 300 298 297 298 300 301 300 294 287 287 280 253 212 207 224 225 205 208 214 216 217 214 211 219 231 237 232 227 229 240 243 240 248 257 232 176 148 131 118 101 60 281 204 136 115 138 229 250 275
328 327 327 325 322 319 315 308 305 310 311 300 282 271 271 269 261 259 259 256 261 282 285 287 295 299 299 298 298 298 297 304 312 309 304 305 311 311 308 300 293 292 293 291 288 288 282 270 261 259 247 232 255 259 207 211 200 187 198 207 204 210 224 233 238 236 225 230 240 233 232 246 123 141 146 140 136 126 133 245 226 140 113 131 238 260 283
327 326 326 325 322 319 316 309 301 297 299 296 283 272 267 265 261 258 257 251 246 261 275 283 286 285 287 291 291 293 298 299 300 300 303 313 316 314 314 312 295 279 276 272 262 264 271 266 258 257 252 336 300 270 240 228 204 165 174 195 198 202 211 217 227 230 222 228 237 233 234 223 85 118 137 126 123 165 205 230 209 129 112 114 262 278 295
325 326 326 324 321 319 316 310 302 294 291 291 287 279 270 262 260 257 251 247 249 263 272 275 275 274 276 289 295 294 296 295 293 295 297 300 309 317 319 318 309 260 241 268 267 260 269 275 271 264 258 85 279 273 273 244 221 175 162 185 193 198 202 207 218 222 222 230 233 238 250 230 144 200 178 115 85 237 225 231 123 130 171 221 241 264 289
324 325 325 324 321 318 314 309 303 298 294 290 286 282 274 264 259 255 247 242 244 255 264 265 267 270 272 278 281 279 279 281 281 288 291 290 324 331 309 295 290 255 235 256 267 270 270 270 281 279 273 241 235 279 310 273 236 186 177 199 199 199 200 205 220 223 218 221 228 240 242 136 71 279 266 258 251 233 259 323 313 245 267 269 253 262 280
324 325 325 325 323 319 314 309 305 302 298 293 285 281 278 272 264 256 249 245 249 259 268 269 265 267 268 267 267 270 275 275 269 270 276 281 319 328 308 268 214 296 259 238 250 266 269 272 298 281 270 269 260 281 277 238 220 212 224 228 212 202 206 208 212 217 223 224 222 226 217 86 40 341 275 227 256 320 342 324 303 312 324 311 296 298 306
325 326 325 325 324 321 315 310 307 303 298 295 287 281 279 275 266 258 256 253 253 259 268 265 257 262 267 266 265 266 267 266 264 268 276 279 287 302 302 313 324 306 303 298 282 272 287 295 301 277 275 286 275 263 270 257 230 208 224 253 242 218 222 227 214 208 221 217 204 203 312 1 16 352 310 317 331 336 337 329 318 318 320 315 310 311 311
326 326 326 327 326 323 317 312 307 301 299 296 288 281 278 273 265 259 257 252 248 252 260 262 264 270 271 268 267 263 259 260 261 261 265 270 269 263 269 286 289 278 292 319 299 279 297 299 300 288 281 282 271 264 270 271 253 204 196 236 233 193 182 287 268 275 274 251 258 323 319 306 318 339 331 327 328 330 331 328 320 312 313 315 307 302 303
326 327 328 328 327 323 319 314 307 303 303 299 289 281 278 275 268 258 252 250 250 256 264 269 273 276 275 270 268 262 255 255 254 249 247 252 259 260 260 266 271 271 272 277 283 303 317 306 307 305 291 287 287 277 263 257 258 244 222 225 223 211 241 321 287 288 289 275 272 285 289 288 297 311 314 314 316 319 322 320 314 313 318 313 301 296 297
327 328 329 329 328 325 320 316 310 306 304 299 291 283 278 277 272 256 242 239 245 256 267 266 259 260 275 286 281 263 248 246 246 243 236 232 236 246 250 250 253 258 261 266 277 292 299 296 297 292 285 290 293 280 267 260 260 267 257 242 237 238 232 229 253 270 274 266 267 279 285 290 299 304 303 303 303 304 309 309 306 309 311 305 296 289 287
327 328 329 329 328 326 323 319 314 309 305 301 297 290 280 276 271 257 238 231 237 248 265 264 247 247 271 288 278 246 239 243 243 241 230 222 225 232 239 245 247 247 258 273 273 267 273 284 283 275 278 285 281 272 274 276 275 280 269 252 248 258 253 237 246 252 255 258 272 287 290 291 291 287 284 287 291 295 301 304 303 303 298 290 287 282 275
328 330 331 330 328 327 324 321 317 311 306 303 299 292 282 276 271 258 240 236 241 245 251 264 264 265 276 279 268 254 261 263 255 248 239 228 227 232 242 254 259 255 258 263 260 261 267 270 273 276 276 274 273 276 283 288 288 284 275 266 266 271 274 265 259 259 263 265 266 272 278 279 275 270 272 283 296 304 308 308 307 304 296 282 273 271 263
331 332 332 331 329 327 325 323 319 313 307 303 297 289 282 274 267 257 240 232 231 235 245 257 264 279 283 281 277 272 269 261 251 245 241 236 233 235 240 248 253 255 256 251 246 252 257 256 259 261 261 270 280 275 271 276 280 276 269 265 264 261 258 257 259 259 259 257 256 260 266 271 274 282 297 306 310 312 311 308 308 306 302 292 277 265 245
333 334 334 332 331 329 327 326 323 317 311 307 301 293 285 270 260 258 252 242 233 234 251 270 280 289 292 293 294 290 269 250 242 240 240 239 236 233 236 241 247 251 255 254 249 245 242 246 254 255 260 275 281 270 265 269 268 264 262 257 252 252 253 254 257 260 261 266 274 282 286 282 281 289 297 299 300 302 300 299 301 300 298 297 289 271 248
336 337 336 335 333 332 331 331 331 328 325 324 319 308 298 286 272 265 263 256 246 242 250 269 281 283 285 289 296 296 281 261 250 244 241 239 235 231 231 235 239 242 246 252 254 253 252 258 264 264 261 264 274 276 274 268 261 257 258 257 252 250 250 251 255 263 267 270 276 281 280 275 275 281 285 287 289 292 289 289 293 291 288 290 288 277 258
340 340 339 336 335 336 340 344 347 344 342 343 343 328 310 321 328 285 257 258 248 239 238 252 274 279 281 285 290 291 280 261 248 240 236 233 231 228 225 227 232 235 238 244 248 251 258 262 262 262 256 246 250 277 273 264 268 269 264 262 258 254 253 252 254 258 264 266 268 269 269 270 274 279 279 277 278 280 280 282 284 281 280 284 285 280 270
344 343 340 338 340 345 352 358 0 360 360 3 1 336 305 356 9 359 36 100 226 227 228 238 262 280 290 293 292 288 268 253 244 236 231 228 228 225 219 219 223 224 227 235 242 246 251 253 255 262 257 240 233 249 264 265 275 274 267 265 258 250 252 254 253 255 257 259 261 265 267 269 272 273 271 269 270 273 273 275 277 276 276 278 275 267 264
345 344 343 342 346 357 7 8 8 11 17 24 24 10 347 334 321 312 348 78 176 213 222 240 273 282 292 297 297 292 270 259 253 242 232 226 226 225 219 217 220 220 221 229 237 240 244 246 248 258 258 240 227 242 262 259 261 263 264 267 260 246 248 253 256 255 252 249 252 261 265 265 264 262 263 264 267 267 267 270 274 273 271 268 259 241 232
347 348 347 348 356 9 12 9 14 24 36 42 35 22 8 356 337 315 318 120 160 201 211 213 277 281 291 301 307 311 291 260 246 238 231 221 219 224 220 215 221 225 222 222 227 235 241 242 245 255 256 241 227 240 254 249 252 258 264 269 267 257 255 259 258 254 249 247 249 254 260 263 264 263 263 262 261 261 263 268 272 271 265 257 243 222 202
350 352 354 358 8 14 12 11 18 28 37 41 37 23 12 10 2 331 199 148 149 177 189 177 243 271 291 297 302 319 317 279 239 232 229 212 211 222 219 208 214 221 217 218 228 242 248 249 254 262 257 238 228 243 256 254 257 261 265 269 271 269 270 270 261 251 250 254 255 254 256 260 263 262 260 259 258 259 260 261 260 255 248 241 231 214 189
353 358 4 10 15 14 12 15 20 24 28 29 29 24 19 18 22 33 186 167 142 146 169 194 231 264 297 305 308 326 310 292 265 249 242 203 202 214 211 195 202 212 210 217 232 244 252 257 260 262 258 241 232 235 245 256 263 266 267 271 276 278 277 272 261 254 255 258 257 253 253 255 255 253 252 253 255 255 253 250 244 233 229 228 224 213 194
358 6 13 18 18 16 15 16 16 17 17 16 21 44 44 37 44 82 189 207 174 142 167 188 199 227 276 301 325 318 300 300 305 292 269 212 198 206 203 197 207 212 210 219 233 244 248 250 255 263 263 250 242 256 277 284 283 280 276 277 280 281 277 272 266 261 259 256 251 247 246 245 245 244 245 247 248 246 241 236 226 217 219 222 216 205 194
5 13 20 21 20 21 18 11 6 7 10 17 61 85 61 51 67 113 198 249 261 253 226 202 213 249 264 271 300 306 295 311 335 321 270 284 266 198 198 214 228 207 212 226 248 271 260 247 244 265 266 264 279 294 296 293 287 281 279 280 281 280 278 276 272 265 260 256 251 248 247 243 240 239 240 240 238 233 228 223 214 210 215 217 207 189 176
13 22 30 30 26 23 11 2 1 5 11 30 79 86 53 51 94 170 217 253 266 250 233 228 238 244 239 247 288 313 313 319 329 330 2 358 342 209 195 236 297 345 263 260 327 333 305 257 233 268 274 286 302 307 309 308 297 281 275 278 280 280 280 281 274 260 253 250 246 242 237 233 231 231 232 231 226 219 214 211 207 205 208 210 199 177 161
19 31 40 38 31 20 4 0 7 13 15 28 65 64 8 16 59 212 214 211 219 214 213 234 239 211 198 220 284 315 316 315 321 318 347 4 360 357 231 338 350 344 306 305 359 353 333 268 263 301 297 304 314 321 330 340 342 327 305 294 286 281 280 281 274 258 246 241 240 234 225 220 219 218 217 214 209 202 198 200 204 205 206 205 194 172 158
21 32 40 37 27 14 6 8 19 23 19 16 32 24 3 360 1 331 277 274 285 201 208 241 236 206 202 221 270 336 341 359 358 339 343 2 359 345 337 351 353 341 299 290 359 358 340 279 306 322 319 323 327 333 342 352 0 3 359 345 318 293 283 280 277 263 242 236 235 224 208 203 204 203 201 198 191 183 179 183 195 201 199 191 180 170 166
19 26 33 29 20 17 20 22 26 28 23 12 10 17 16 15 9 353 351 6 13 360 335 318 277 199 196 211 212 222 270 191 119 72 28 5 345 333 342 343 334 341 345 328 342 349 321 298 333 347 335 335 340 348 356 2 6 9 9 5 353 332 317 302 279 237 210 215 211 190 181 185 188 188 185 182 181 181 181 184 191 195 189 179 172 170 168
18 24 33 32 23 21 24 23 22 26 25 11 7 15 12 7 10 11 15 20 8 343 345 346 344 346 348 242 215 230 247 168 151 152 81 15 5 5 7 342 335 10 11 327 319 324 330 347 2 353 336 341 349 357 3 6 8 9 13 18 25 31 29 26 35 87 139 147 148 154 159 160 163 169 171 169 171 176 181 188 194 189 180 175 170 159 150
29 34 39 36 24 15 16 18 17 22 29 9 3 8 9 5 7 13 14 7 347 340 348 352 350 351 358 1 328 302 267 224 214 248 349 43 35 20 15 16 11 353 319 314 329 357 14 15 6 337 334 345 355 0 3 8 12 14 18 27 39 49 48 44 49 64 78 87 101 119 129 127 130 150 170 177 180 183 188 197 202 187 166 160 156 147 142
41 37 35 32 16 2 1 13 12 13 28 23 5 0 0 360 3 11 6 349 338 342 350 352 352 0 12 6 358 15 11 294 282 338 79 121 23 18 25 31 13 327 308 337 8 14 17 11 353 342 345 354 1 2 4 10 16 19 22 31 41 48 50 50 57 67 73 76 85 96 101 101 105 113 130 157 183 196 191 178 170 155 136 129 127 126 130
39 26 20 27 16 6 11 20 9 8 22 21 357 352 354 354 357 7 3 344 334 347 358 358 357 8 21 18 16 25 14 351 349 17 4 15 45 39 23 10 355 349 1 18 19 17 16 2 346 346 353 358 3 7 11 15 21 27 32 36 40 43 45 47 53 60 64 67 74 81 84 86 91 94 94 100 113 124 122 121 124 124 119 114 110 108 111
40 24 21 37 28 20 27 35 13 8 17 8 356 357 0 357 357 1 359 352 350 2 9 6 2 9 20 27 38 39 22 13 17 4 348 10 51 39 13 360 11 17 23 25 22 22 14 354 344 350 356 359 4 11 17 21 27 34 39 41 42 44 45 46 50 54 57 59 65 70 72 76 83 85 83 83 85 88 91 98 104 107 106 104 103 100 97
41 30 31 47 42 36 40 41 31 23 21 15 11 10 8 7 10 9 4 359 360 6 12 13 16 21 22 21 34 45 36 30 33 15 0 15 55 38 26 35 35 23 23 24 21 18 360 346 349 354 356 360 7 14 19 25 33 38 41 44 47 48 48 48 50 53 55 57 60 62 62 67 74 78 78 77 77 77 81 87 92 94 95 97 100 101 98
46 29 29 42 47 39 34 32 35 33 26 18 16 15 14 17 20 17 11 6 4 5 10 15 24 33 28 20 25 38 33 29 36 34 23 25 42 27 29 45 44 31 27 22 11 357 336 340 348 354 358 6 16 21 21 25 33 39 42 44 47 51 54 55 56 57 59 60 62 62 63 65 70 74 77 78 78 78 81 87 91 94 96 99 102 103 101
56 44 36 46 56 45 30 27 34 35 27 20 19 17 16 19 22 18 11 4 2 7 16 18 19 28 31 24 31 41 31 24 33 40 35 40 51 40 33 45 47 36 24 9 353 341 334 339 349 358 6 16 25 31 31 30 33 39 43 46 48 51 57 62 64 65 65 63 65 69 71 72 74 76 78 79 80 80 81 85 89 93 95 96 96 97 97
55 47 35 35 42 38 28 27 34 35 25 21 21 17 13 14 17 13 5 2 5 18 33 32 28 32 36 32 42 54 40 26 33 47 44 45 53 53 49 52 50 30 3 346 340 339 344 352 0 5 9 19 31 37 38 37 38 40 44 48 51 53 57 62 68 70 69 66 67 72 76 77 80 82 84 85 88 90 89 89 91 94 95 94 94 95 95
50 50 42 37 38 36 31 33 37 33 24 21 20 16 12 12 9 2 358 4 17 33 39 32 29 35 40 35 39 50 46 34 41 53 52 47 44 48 54 54 40 10 359 6 8 8 11 16 16 12 12 22 33 38 39 40 42 42 42 44 47 50 54 58 62 65 68 71 72 73 73 74 80 86 90 92 95 95 92 90 92 95 96 95 94 93 93
50 53 50 46 41 37 36 38 36 32 29 26 22 17 15 12 5 359 2 16 30 39 41 40 43 48 47 37 33 40 50 49 46 48 51 48 35 33 39 25 356 347 353 6 20 30 32 29 26 23 20 25 33 38 39 40 41 42 43 45 46 47 51 53 54 55 60 65 69 72 74 77 82 87 91 92 91 88 87 88 91 92 92 93 93 93 93
Height
1541 1539 1536 1534 1532 1529 1526 1523 1520 1517 1513 1509 1507 1505 1505 1503 1498 1495 1493 1491 1487 1483 1479 1479 1479 1478 1479 1478 1475 1475 1474 1472 1469 1467 1467 1464 1459 1455 1449 1443 1440 1437 1435 1433 1429 1428 1427 1423 1420 1420 1423 1425 1427 1427 1425 1422 1418 1414 1412 1412 1413 1413 1412 1412 1407 1400 1396 1393 1391 1393 1394 1396 1404 1405 1404 1407 1409 1411 1417 1421 1419 1423 1428 1426 1433 1442 1425
1541 1538 1536 1534 1531 1529 1526 1524 1521 1518 1515 1512 1509 1508 1507 1504 1499 1495 1494 1492 1488 1486 1485 1485 1483 1481 1480 1478 1476 1476 1475 1474 1473 1471 1470 1468 1465 1462 1454 1447 1445 1441 1437 1435 1431 1429 1429 1426 1424 1424 1425 1427 1429 1428 1426 1424 1420 1419 1419 1417 1416 1414 1411 1412 1414 1414 1414 1410 1406 1403 1398 1397 1400 1399 1399 1402 1403 1406 1411 1412 1414 1422 1423 1420 1431 1437 1420
1540 1538 1536 1534 1531 1529 1526 1524 1522 1519 1517 1514 1512 1511 1508 1504 1499 1496 1495 1494 1491 1489 1490 1490 1487 1484 1482 1479 1477 1477 1476 1476 1476 1474 1473 1472 1470 1467 1460 1455 1451 1445 1439 1435 1431 1430 1430 1427 1426 1427 1426 1428 1430 1429 1428 1426 1423 1423 1424 1421 1418 1416 1410 1407 1412 1417 1419 1417 1413 1407 1399 1397 1398 1396 1395 1398 1399 1404 1410 1413 1419 1427 1423 1418 1424 1426 1414
1540 1538 1536 1533 1531 1529 1526 1524 1522 1520 1518 1515 1513 1512 1510 1506 1501 1498 1496 1494 1492 1492 1492 1492 1489 1487 1485 1482 1479 1478 1476 1476 1477 1476 1475 1474 1473 1469 1464 1460 1456 1449 1443 1437 1431 1430 1430 1428 1428 1428 1428 1429 1430 1430 1429 1428 1426 1426 1425 1421 1418 1416 1411 1409 1412 1411 1409 1410 1409 1403 1396 1395 1397 1397 1397 1399 1398 1399 1405 1412 1417 1420 1422 1421 1419 1417 1415
1540 1537 1535 1533 1531 1529 1527 1525 1523 1521 1519 1516 1514 1514 1512 1508 1504 1503 1502 1497 1493 1491 1491 1491 1490 1489 1487 1484 1481 1479 1478 1477 1477 1477 1477 1476 1475 1471 1466 1465 1463 1459 1453 1444 1435 1433 1433 1432 1432 1432 1431 1430 1430 1430 1430 1429 1428 1427 1424 1420 1418 1417 1414 1413 1415 1415 1412 1411 1410 1406 1400 1397 1396 1397 1400 1401 1401 1400 1404 1409 1409 1410 1419 1423 1415 1414 1418
1539 1537 1535 1533 1531 1529 1527 1525 1523 1521 1520 1517 1515 1515 1513 1510 1508 1507 1507 1503 1497 1494 1492 1491 1490 1488 1486 1484 1482 1480 1478 1477 1478 1479 1478 1477 1477 1474 1469 1469 1469 1466 1462 1454 1444 1438 1437 1436 1436 1437 1436 1433 1430 1429 1429 1429 1429 1427 1424 1423 1421 1419 1416 1414 1415 1417 1414 1411 1410 1408 1407 1405 1403 1402 1403 1404 1404 1406 1407 1409 1406 1406 1416 1418 1411 1413 1418
1539 1537 1535 1533 1531 1529 1526 1525 1523 1521 1520 1518 1517 1516 1514 1513 1510 1508 1507 1505 1501 1497 1495 1493 1490 1487 1485 1484 1482 1482 1480 1479 1479 1479 1477 1478 1478 1477 1474 1473 1472 1469 1465 1460 1453 1448 1446 1445 1444 1443 1442 1439 1434 1430 1430 1430 1430 1429 1426 1425 1426 1423 1419 1418 1419 1418 1415 1413 1412 1411 1411 1411 1411 1408 1408 1408 1408 1408 1409 1410 1407 1408 1412 1412 1410 1414 1416
1538 1536 1534 1532 1530 1528 1526 1524 1522 1521 1520 1518 1518 1517 1515 1514 1512 1509 1508 1505 1501 1497 1495 1492 1489 1486 1484 1483 1482 1483 1481 1480 1479 1477 1477 1480 1480 1479 1477 1475 1473 1471 1467 1464 1460 1457 1456 1455 1452 1449 1447 1442 1438 1436 1434 1433 1433 1432 1429 1428 1428 1426 1424 1423 1421 1419 1417 1414 1413 1413 1413 1414 1414 1411 1409 1410 1410 1410 1411 1411 1411 1413 1414 1411 1411 1416 1415
1538 1536 1534 1532 1530 1528 1525 1524 1522 1521 1519 1518 1517 1517 1515 1514 1513 1511 1510 1505 1500 1497 1493 1491 1488 1484 1482 1483 1483 1483 1482 1481 1481 1478 1477 1481 1482 1480 1479 1477 1474 1471 1469 1467 1464 1461 1461 1459 1454 1452 1451 1447 1444 1443 1440 1439 1439 1436 1433 1433 1430 1428 1426 1424 1423 1424 1418 1413 1414 1415 1413 1414 1415 1412 1409 1410 1410 1410 1409 1410 1410 1412 1414 1415 1415 1416 1413
1537 1535 1533 1531 1529 1527 1525 1523 1521 1520 1519 1517 1516 1515 1514 1513 1512 1511 1511 1506 1500 1497 1493 1490 1488 1484 1483 1484 1484 1483 1481 1481 1481 1479 1477 1479 1479 1478 1478 1477 1474 1471 1468 1467 1465 1463 1461 1459 1456 1454 1453 1449 1448 1446 1443 1442 1443 1440 1438 1436 1433 1431 1430 1425 1425 1426 1417 1413 1416 1416 1416 1423 1419 1407 1403 1405 1406 1407 1406 1406 1406 1406 1409 1412 1412 1409 1405
1536 1534 1532 1530 1528 1526 1524 1522 1520 1519 1518 1517 1515 1514 1512 1511 1510 1509 1510 1505 1499 1496 1493 1490 1488 1485 1484 1484 1483 1481 1481 1480 1480 1480 1478 1475 1475 1475 1475 1475 1473 1470 1466 1465 1464 1462 1460 1458 1455 1453 1451 1449 1447 1446 1444 1442 1442 1441 1440 1439 1434 1434 1434 1428 1426 1427 1421 1416 1417 1419 1424 1427 1413 1396 1393 1397 1400 1403 1404 1403 1402 1401 1402 1403 1403 1402 1400
1534 1532 1530 1528 1526 1524 1522 1521 1519 1517 1516 1515 1514 1512 1511 1510 1509 1508 1509 1505 1498 1495 1493 1490 1488 1487 1484 1483 1482 1480 1480 1479 1478 1479 1478 1474 1473 1473 1472 1471 1470 1467 1465 1464 1462 1460 1457 1454 1451 1448 1447 1446 1444 1443 1442 1441 1440 1440 1440 1440 1437 1436 1435 1431 1428 1429 1424 1417 1421 1430 1430 1418 1401 1393 1394 1395 1396 1398 1400 1401 1401 1400 1401 1401 1401 1401 1400
1532 1530 1528 1526 1524 1522 1520 1519 1517 1515 1513 1512 1511 1510 1509 1508 1507 1507 1507 1505 1499 1494 1492 1489 1487 1486 1484 1482 1481 1480 1479 1478 1477 1476 1476 1474 1472 1471 1470 1469 1468 1465 1465 1463 1460 1458 1454 1449 1445 1442 1440 1440 1440 1440 1439 1437 1437 1437 1437 1438 1438 1436 1435 1431 1428 1429 1426 1422 1425 1428 1420 1406 1399 1399 1399 1398 1399 1401 1404 1406 1404 1401 1402 1403 1404 1403 1401
1530 1527 1525 1523 1521 1519 1517 1516 1514 1512 1511 1509 1508 1507 1506 1506 1505 1505 1505 1503 1497 1493 1492 1489 1484 1483 1482 1481 1480 1479 1477 1477 1475 1474 1473 1472 1471 1470 1469 1468 1467 1465 1465 1462 1459 1457 1453 1447 1444 1438 1434 1436 1439 1436 1432 1431 1432 1433 1434 1436 1437 1437 1435 1433 1430 1428 1426 1425 1421 1414 1410 1408 1405 1402 1399 1399 1400 1402 1405 1406 1402 1400 1403 1406 1406 1406 1404
1527 1525 1522 1520 1518 1516 1514 1512 1511 1509 1508 1506 1505 1504 1504 1503 1502 1502 1502 1501 1497 1492 1490 1487 1483 1482 1482 1481 1480 1478 1476 1475 1474 1472 1471 1470 1469 1469 1469 1467 1466 1465 1464 1462 1459 1456 1452 1449 1445 1437 1431 1432 1433 1430 1426 1426 1427 1428 1430 1433 1435 1436 1436 1434 1434 1428 1424 1425 1422 1416 1417 1415 1404 1397 1398 1399 1400 1401 1403 1405 1403 1401 1403 1406 1406 1406 1405
1524 1522 1519 1517 1514 1512 1510 1508 1507 1506 1504 1503 1501 1500 1500 1500 1500 1499 1499 1498 1497 1491 1486 1485 1484 1484 1483 1481 1480 1479 1476 1475 1474 1471 1469 1468 1468 1468 1468 1467 1466 1464 1463 1462 1459 1456 1453 1449 1444 1438 1432 1430 1431 1430 1428 1425 1422 1424 1428 1430 1433 1437 1436 1435 1435 1430 1424 1426 1426 1421 1418 1411 1399 1395 1398 1400 1401 1400 1403 1409 1408 1402 1403 1406 1405 1405 1404
1521 1519 1516 1513 1511 1508 1506 1504 1503 1502 1501 1500 1498 1496 1496 1496 1496 1496 1496 1496 1494 1488 1483 1484 1484 1483 1482 1480 1478 1478 1477 1475 1475 1473 1470 1469 1468 1467 1467 1466 1465 1463 1463 1461 1457 1455 1452 1447 1443 1440 1435 1433 1435 1434 1429 1425 1423 1426 1429 1429 1432 1436 1437 1437 1438 1432 1425 1425 1423 1416 1410 1404 1400 1399 1399 1401 1401 1400 1408 1417 1412 1402 1403 1406 1405 1404 1404
1518 1515 1512 1510 1507 1504 1502 1500 1499 1498 1497 1496 1495 1492 1492 1492 1493 1493 1493 1493 1491 1485 1481 1482 1483 1481 1480 1479 1478 1477 1477 1475 1475 1474 1472 1469 1468 1467 1467 1466 1464 1462 1462 1459 1455 1453 1451 1447 1446 1443 1438 1437 1439 1436 1431 1429 1427 1428 1430 1431 1432 1434 1435 1436 1435 1430 1426 1427 1424 1417 1408 1402 1401 1401 1400 1401 1403 1404 1412 1416 1409 1403 1405 1406 1405 1405 1404
1514 1512 1509 1506 1503 1500 1498 1496 1495 1495 1494 1493 1491 1488 1487 1488 1489 1489 1489 1489 1487 1482 1479 1480 1481 1479 1479 1479 1478 1477 1476 1475 1475 1475 1472 1469 1468 1468 1466 1464 1464 1462 1461 1459 1456 1452 1450 1446 1446 1446 1443 1440 1440 1439 1439 1438 1434 1433 1435 1435 1433 1433 1432 1433 1433 1428 1425 1423 1423 1421 1413 1403 1402 1403 1402 1402 1406 1410 1411 1410 1406 1404 1405 1404 1404 1405 1404
1511 1508 1505 1502 1499 1496 1494 1492 1491 1491 1490 1490 1488 1485 1483 1483 1484 1484 1484 1485 1484 1480 1477 1478 1478 1477 1477 1477 1476 1475 1475 1474 1474 1474 1472 1469 1469 1469 1465 1463 1464 1463 1460 1459 1455 1452 1451 1447 1445 1447 1445 1441 1440 1440 1440 1438 1435 1435 1436 1435 1432 1432 1431 1430 1427 1425 1424 1423 1424 1427 1421 1409 1407 1408 1406 1404 1408 1411 1411 1408 1406 1405 1404 1403 1403 1403 1403
1508 1504 1501 1498 1495 1492 1490 1488 1487 1487 1486 1485 1484 1481 1479 1478 1479 1480 1480 1481 1481 1477 1474 1474 1475 1475 1475 1474 1474 1474 1473 1472 1472 1472 1472 1470 1470 1471 1467 1464 1466 1464 1460 1458 1455 1452 1452 1449 1446 1447 1445 1441 1441 1440 1438 1436 1433 1432 1434 1435 1432 1431 1432 1429 1423 1421 1424 1422 1419 1419 1417 1412 1412 1413 1411 1410 1412 1412 1411 1410 1407 1405 1405 1405 1404 1403 1403
1504 1500 1497 1494 1491 1489 1487 1485 1483 1483 1482 1482 1480 1478 1475 1474 1474 1476 1476 1477 1476 1473 1471 1472 1472 1471 1471 1470 1470 1470 1470 1470 1471 1472 1472 1470 1470 1470 1468 1466 1466 1465 1463 1462 1458 1454 1453 1451 1448 1447 1445 1442 1441 1440 1439 1439 1435 1430 1433 1437 1434 1430 1433 1435 1431 1428 1426 1420 1414 1413 1414 1413 1414 1415 1414 1414 1415 1414 1414 1412 1410 1408 1406 1405 1404 1404 1404
1500 1496 1494 1491 1488 1485 1483 1481 1479 1478 1478 1478 1476 1473 1471 1470 1470 1472 1473 1472 1472 1470 1469 1469 1469 1468 1467 1466 1466 1466 1466 1467 1468 1468 1470 1470 1469 1468 1468 1466 1465 1465 1465 1464 1462 1458 1457 1455 1452 1451 1448 1443 1441 1440 1439 1438 1435 1431 1432 1434 1431 1430 1433 1437 1436 1432 1428 1422 1418 1417 1417 1414 1413 1415 1416 1416 1415 1415 1415 1414 1412 1411 1409 1407 1406 1405 1404
1496 1493 1490 1487 1484 1482 1479 1477 1476 1474 1473 1473 1471 1469 1467 1466 1466 1468 1469 1469 1469 1468 1467 1466 1466 1465 1464 1463 1464 1464 1464 1465 1465 1465 1467 1468 1467 1466 1465 1465 1465 1464 1464 1464 1463 1462 1461 1458 1456 1456 1452 1446 1443 1442 1439 1436 1434 1433 1433 1430 1427 1428 1432 1435 1435 1432 1430 1425 1418 1417 1417 1415 1415 1416 1416 1415 1416 1416 1415 1415 1414 1412 1411 1409 1407 1406 1404
1492 1489 1487 1484 1481 1478 1476 1473 1472 1470 1468 1467 1466 1464 1463 1463 1462 1464 1465 1466 1467 1468 1466 1464 1462 1462 1462 1462 1462 1462 1463 1463 1463 1463 1464 1464 1465 1464 1463 1463 1463 1463 1463 1463 1463 1463 1462 1460 1457 1455 1452 1448 1446 1443 1440 1437 1435 1435 1434 1430 1427 1428 1431 1433 1431 1429 1428 1425 1420 1419 1419 1417 1416 1417 1416 1415 1416 1415 1414 1414 1413 1412 1411 1409 1407 1406 1404
1489 1486 1483 1481 1477 1475 1472 1469 1467 1466 1464 1463 1462 1460 1460 1459 1459 1460 1462 1463 1465 1467 1466 1462 1460 1460 1460 1460 1460 1460 1461 1461 1461 1461 1461 1462 1462 1462 1462 1462 1463 1462 1462 1463 1463 1462 1462 1460 1458 1455 1453 1450 1447 1444 1440 1439 1437 1436 1434 1431 1429 1430 1432 1431 1428 1426 1425 1423 1420 1421 1419 1415 1412 1413 1414 1415 1416 1415 1414 1413 1412 1411 1410 1409 1407 1406 1404
1486 1483 1480 1477 1474 1471 1468 1465 1463 1461 1460 1458 1457 1456 1456 1456 1457 1458 1459 1462 1464 1465 1463 1460 1459 1459 1458 1458 1458 1458 1458 1458 1458 1459 1459 1459 1459 1460 1460 1461 1461 1461 1461 1461 1461 1461 1461 1459 1457 1455 1452 1449 1447 1444 1441 1439 1438 1436 1433 1429 1428 1429 1428 1427 1427 1427 1423 1418 1416 1418 1417 1413 1410 1411 1413 1414 1415 1414 1413 1412 1411 1410 1409 1408 1407 1406 1404
1483 1481 1477 1474 1471 1467 1463 1460 1458 1457 1455 1454 1453 1453 1453 1454 1454 1455 1457 1459 1461 1461 1460 1459 1459 1458 1457 1456 1456 1455 1455 1455 1456 1456 1456 1456 1457 1458 1458 1459 1459 1459 1459 1459 1459 1458 1458 1456 1453 1450 1449 1448 1446 1442 1438 1437 1437 1434 1429 1425 1424 1425 1424 1423 1423 1422 1418 1414 1414 1416 1417 1414 1412 1413 1414 1414 1413 1413 1412 1410 1410 1409 1407 1407 1407 1406 1404
1481 1478 1475 1471 1467 1463 1460 1457 1455 1454 1453 1452 1451 1451 1452 1452 1452 1454 1455 1456 1457 1458 1459 1459 1458 1457 1456 1454 1453 1453 1453 1453 1453 1454 1454 1454 1454 1455 1455 1456 1457 1457 1457 1457 1456 1454 1453 1451 1449 1447 1447 1447 1446 1441 1437 1435 1432 1426 1421 1419 1420 1421 1420 1420 1420 1418 1415 1415 1416 1417 1418 1415 1413 1414 1414 1412 1412 1412 1410 1409 1409 1408 1406 1405 1405 1405 1403
1478 1475 1471 1467 1464 1460 1457 1455 1454 1453 1452 1451 1450 1450 1451 1451 1451 1452 1453 1454 1455 1456 1458 1459 1457 1455 1453 1452 1451 1451 1450 1450 1451 1451 1451 1451 1451 1452 1453 1453 1454 1455 1455 1454 1453 1452 1450 1448 1446 1445 1445 1445 1445 1441 1436 1432 1425 1417 1414 1415 1417 1416 1416 1417 1417 1415 1414 1414 1415 1416 1416 1413 1412 1412 1411 1410 1410 1410 1408 1406 1407 1406 1405 1404 1404 1403 1402
1476 1472 1469 1465 1461 1459 1457 1455 1454 1453 1451 1450 1450 1450 1451 1451 1451 1451 1452 1452 1453 1455 1456 1457 1456 1454 1452 1450 1449 1449 1449 1448 1448 1448 1448 1448 1448 1449 1450 1450 1451 1452 1452 1451 1451 1450 1448 1446 1444 1442 1441 1442 1443 1439 1433 1430 1424 1414 1409 1410 1412 1413 1413 1412 1412 1412 1412 1412 1413 1413 1411 1410 1410 1409 1407 1406 1407 1407 1406 1404 1404 1404 1403 1403 1402 1402 1402
1473 1470 1466 1463 1460 1458 1457 1456 1454 1453 1451 1450 1450 1450 1450 1450 1450 1450 1451 1452 1453 1454 1456 1456 1455 1454 1451 1449 1447 1447 1447 1447 1446 1446 1445 1445 1445 1445 1446 1447 1448 1448 1448 1449 1449 1447 1444 1443 1442 1439 1437 1439 1439 1436 1432 1430 1422 1410 1404 1407 1409 1409 1409 1408 1407 1407 1407 1408 1409 1407 1405 1404 1405 1405 1403 1403 1404 1404 1402 1401 1402 1402 1402 1401 1401 1401 1401
1471 1468 1464 1462 1460 1458 1457 1456 1454 1452 1451 1450 1450 1449 1449 1449 1449 1450 1450 1451 1453 1454 1455 1456 1456 1454 1451 1448 1447 1445 1444 1444 1444 1443 1442 1442 1442 1443 1443 1444 1445 1446 1446 1446 1445 1443 1441 1440 1438 1436 1434 1435 1435 1433 1428 1422 1413 1405 1403 1405 1406 1405 1404 1403 1402 1401 1401 1402 1403 1402 1399 1399 1401 1402 1401 1400 1400 1400 1399 1399 1400 1400 1400 1400 1400 1400 1400
1469 1466 1463 1461 1459 1458 1457 1455 1453 1452 1450 1450 1450 1450 1450 1449 1449 1449 1450 1451 1453 1454 1455 1456 1456 1454 1451 1448 1446 1444 1443 1443 1442 1441 1440 1439 1440 1440 1441 1442 1443 1444 1443 1442 1442 1440 1437 1436 1435 1433 1430 1430 1432 1430 1422 1412 1405 1404 1404 1403 1401 1401 1400 1398 1396 1395 1394 1395 1396 1395 1394 1395 1397 1398 1396 1395 1395 1396 1396 1396 1397 1398 1398 1398 1399 1399 1398
1468 1465 1463 1461 1459 1458 1456 1454 1453 1452 1451 1451 1451 1451 1450 1449 1449 1449 1450 1451 1452 1454 1455 1456 1456 1455 1451 1447 1444 1443 1443 1442 1440 1438 1437 1438 1438 1439 1439 1441 1442 1442 1440 1440 1439 1437 1434 1433 1433 1430 1427 1426 1427 1423 1414 1405 1402 1402 1401 1398 1396 1396 1395 1391 1389 1388 1387 1387 1387 1388 1389 1391 1392 1391 1390 1390 1391 1391 1392 1392 1394 1395 1395 1396 1397 1398 1397
1467 1464 1462 1461 1459 1458 1456 1454 1454 1453 1453 1453 1452 1451 1450 1449 1449 1449 1450 1451 1452 1454 1454 1455 1455 1454 1452 1448 1445 1444 1442 1440 1439 1438 1437 1437 1438 1438 1439 1440 1440 1439 1438 1437 1437 1434 1432 1432 1431 1429 1425 1423 1420 1414 1408 1404 1402 1399 1395 1392 1392 1390 1388 1384 1381 1380 1379 1380 1380 1380 1383 1385 1386 1385 1385 1386 1386 1387 1387 1388 1389 1391 1392 1394 1396 1396 1396
1466 1464 1462 1461 1459 1458 1457 1456 1455 1454 1454 1453 1452 1451 1450 1450 1450 1450 1451 1452 1452 1452 1453 1454 1454 1452 1451 1449 1447 1444 1443 1441 1439 1438 1438 1437 1437 1438 1439 1439 1438 1437 1436 1436 1434 1432 1431 1430 1430 1428 1424 1421 1417 1412 1408 1404 1399 1393 1388 1386 1385 1382 1379 1375 1373 1372 1372 1373 1374 1374 1376 1378 1379 1379 1380 1381 1381 1382 1383 1384 1385 1387 1389 1392 1394 1394 1394
1466 1464 1462 1461 1459 1459 1459 1458 1456 1455 1454 1452 1451 1451 1451 1451 1451 1452 1452 1452 1452 1451 1452 1453 1452 1450 1450 1450 1447 1444 1443 1442 1440 1438 1438 1438 1438 1438 1438 1438 1437 1436 1437 1436 1434 1432 1430 1429 1428 1426 1422 1419 1415 1410 1404 1396 1390 1385 1382 1380 1378 1374 1369 1366 1365 1365 1365 1366 1366 1366 1368 1370 1371 1372 1374 1375 1376 1377 1379 1380 1382 1385 1388 1391 1392 1392 1391
1466 1464 1463 1462 1462 1462 1461 1460 1457 1455 1454 1452 1452 1452 1452 1452 1452 1452 1451 1451 1451 1451 1451 1451 1450 1449 1449 1449 1447 1445 1444 1444 1442 1441 1440 1440 1440 1439 1439 1439 1438 1438 1438 1436 1434 1433 1431 1430 1428 1426 1423 1419 1414 1407 1398 1390 1384 1380 1377 1374 1371 1366 1362 1360 1359 1358 1357 1357 1357 1357 1359 1360 1362 1365 1368 1370 1371 1374 1375 1377 1380 1384 1387 1389 1390 1389 1389
1466 1464 1464 1463 1464 1464 1463 1460 1457 1455 1454 1453 1453 1453 1453 1452 1452 1451 1450 1449 1448 1449 1450 1449 1447 1447 1448 1448 1447 1446 1445 1445 1445 1444 1443 1443 1442 1441 1441 1441 1441 1440 1439 1437 1436 1436 1435 1432 1429 1427 1425 1421 1414 1406 1398 1390 1384 1379 1374 1370 1365 1361 1357 1354 1353 1352 1351 1352 1353 1353 1354 1356 1358 1361 1364 1366 1368 1370 1372 1375 1379 1383 1385 1386 1387 1388 1389
1466 1465 1465 1465 1465 1464 1462 1460 1458 1456 1456 1455 1455 1454 1454 1453 1453 1451 1449 1449 1448 1448 1448 1447 1445 1445 1446 1447 1446 1446 1445 1445 1445 1445 1445 1444 1443 1442 1442 1443 1442 1441 1439 1438 1438 1438 1437 1434 1431 1429 1428 1423 1416 1408 1399 1391 1384 1379 1373 1366 1360 1357 1354 1351 1350 1350 1351 1351 1352 1352 1353 1356 1359 1361 1364 1366 1367 1369 1371 1375 1379 1382 1383 1384 1386 1388 1389
1469 1467 1466 1466 1465 1464 1462 1461 1459 1459 1458 1458 1458 1457 1456 1456 1455 1454 1453 1453 1454 1453 1449 1447 1446 1445 1445 1445 1445 1445 1445 1444 1444 1444 1444 1444 1443 1443 1443 1443 1442 1441 1441 1440 1439 1438 1437 1434 1433 1433 1431 1425 1419 1411 1403 1394 1388 1381 1374 1367 1360 1357 1355 1352 1351 1351 1351 1351 1352 1353 1354 1356 1360 1362 1364 1366 1369 1370 1373 1377 1379 1379 1380 1382 1385 1387 1389
1471 1469 1467 1466 1466 1464 1463 1463 1462 1463 1465 1466 1466 1466 1463 1461 1460 1460 1459 1459 1458 1456 1452 1449 1447 1446 1445 1445 1445 1444 1444 1444 1444 1444 1443 1443 1443 1443 1443 1443 1443 1443 1442 1441 1439 1439 1439 1440 1440 1439 1434 1428 1422 1415 1408 1401 1394 1386 1378 1371 1365 1361 1358 1356 1354 1352 1351 1352 1353 1354 1356 1357 1360 1362 1364 1367 1369 1371 1375 1377 1378 1377 1377 1379 1382 1385 1388
1473 1470 1469 1468 1467 1465 1466 1468 1469 1470 1473 1475 1476 1475 1473 1469 1466 1465 1464 1463 1462 1459 1454 1451 1449 1447 1446 1446 1445 1444 1444 1444 1443 1443 1443 1442 1442 1442 1443 1445 1446 1444 1442 1441 1442 1442 1443 1446 1446 1443 1437 1430 1424 1418 1412 1406 1400 1393 1386 1379 1372 1368 1366 1363 1359 1355 1354 1355 1356 1357 1358 1360 1361 1363 1366 1368 1370 1373 1376 1377 1376 1377 1379 1381 1384 1386 1388
1475 1472 1471 1471 1472 1471 1473 1477 1478 1477 1479 1481 1480 1478 1477 1474 1469 1467 1466 1465 1464 1461 1457 1454 1451 1449 1447 1446 1445 1445 1445 1444 1443 1443 1443 1441 1441 1443 1446 1447 1446 1444 1445 1446 1447 1448 1449 1451 1450 1445 1439 1433 1428 1423 1417 1412 1407 1402 1396 1389 1382 1378 1375 1372 1366 1362 1362 1363 1362 1362 1364 1364 1364 1366 1368 1369 1371 1375 1377 1376 1376 1379 1383 1385 1387 1390 1393
1477 1476 1475 1477 1479 1479 1480 1484 1485 1483 1482 1482 1480 1477 1475 1473 1470 1468 1467 1466 1464 1462 1460 1457 1454 1451 1449 1448 1447 1447 1447 1445 1445 1446 1445 1443 1445 1448 1449 1448 1448 1449 1452 1454 1455 1457 1459 1459 1454 1449 1443 1438 1433 1428 1424 1419 1415 1410 1405 1400 1395 1390 1385 1381 1376 1374 1374 1373 1372 1372 1372 1371 1370 1371 1372 1373 1375 1378 1379 1377 1378 1382 1385 1387 1389 1394 1397
1480 1480 1479 1482 1484 1484 1484 1486 1487 1486 1484 1482 1479 1477 1475 1472 1470 1469 1468 1467 1465 1464 1462 1460 1457 1455 1453 1451 1449 1449 1449 1447 1448 1450 1449 1448 1450 1451 1450 1452 1457 1462 1464 1465 1467 1467 1466 1463 1458 1453 1448 1442 1437 1433 1429 1425 1420 1416 1412 1409 1405 1401 1397 1393 1389 1386 1385 1383 1382 1382 1381 1378 1375 1375 1376 1379 1382 1384 1383 1382 1384 1387 1389 1390 1394 1398 1401
1483 1484 1484 1487 1489 1488 1487 1487 1487 1485 1484 1482 1480 1478 1475 1473 1471 1470 1469 1468 1466 1465 1463 1461 1459 1458 1457 1455 1453 1453 1452 1451 1452 1454 1453 1453 1456 1457 1457 1460 1467 1472 1473 1475 1475 1472 1468 1464 1460 1456 1452 1447 1442 1438 1434 1430 1426 1422 1418 1415 1412 1409 1407 1404 1401 1398 1397 1396 1394 1393 1390 1387 1384 1384 1386 1389 1392 1393 1392 1392 1394 1396 1397 1399 1401 1403 1404
1487 1488 1489 1490 1491 1491 1491 1489 1487 1486 1485 1484 1482 1479 1476 1474 1473 1472 1471 1470 1467 1466 1464 1462 1460 1459 1459 1459 1458 1459 1458 1457 1458 1458 1457 1457 1460 1464 1467 1470 1475 1477 1477 1476 1475 1472 1468 1466 1462 1458 1454 1450 1446 1442 1438 1435 1432 1428 1424 1422 1419 1417 1414 1412 1410 1409 1408 1407 1405 1403 1400 1398 1397 1398 1398 1399 1400 1402 1403 1404 1404 1405 1406 1407 1408 1408 1410
1491 1493 1494 1494 1494 1494 1494 1492 1489 1488 1488 1486 1484 1482 1480 1478 1476 1475 1473 1472 1469 1467 1465 1463 1462 1461 1461 1460 1460 1462 1465 1464 1463 1463 1464 1463 1465 1467 1471 1476 1479 1479 1478 1476 1474 1472 1470 1467 1463 1460 1457 1453 1450 1446 1443 1440 1437 1434 1430 1428 1426 1424 1422 1420 1418 1416 1415 1414 1412 1410 1409 1408 1408 1407 1407 1407 1409 1410 1411 1411 1411 1412 1412 1413 1413 1414 1415
1497 1498 1499 1499 1499 1498 1497 1495 1493 1492 1491 1489 1488 1487 1485 1483 1480 1479 1477 1474 1471 1468 1466 1466 1466 1465 1466 1465 1465 1466 1468 1467 1466 1466 1469 1471 1471 1472 1476 1479 1479 1477 1476 1476 1474 1473 1471 1469 1466 1463 1460 1457 1453 1451 1448 1445 1442 1440 1436 1434 1431 1429 1427 1426 1424 1421 1420 1420 1418 1417 1416 1416 1415 1415 1414 1415 1416 1416 1416 1416 1417 1417 1417 1417 1418 1419 1420
1502 1502 1503 1502 1502 1501 1500 1498 1497 1496 1495 1494 1493 1491 1489 1487 1485 1482 1480 1477 1473 1471 1471 1471 1470 1470 1471 1472 1471 1469 1469 1469 1470 1471 1474 1476 1477 1478 1480 1481 1479 1477 1477 1477 1475 1473 1472 1470 1468 1466 1464 1461 1458 1455 1452 1450 1447 1445 1442 1439 1437 1435 1433 1431 1429 1428 1427 1426 1425 1424 1423 1422 1421 1421 1421 1421 1421 1421 1422 1422 1423 1423 1423 1423 1423 1424 1424